Meteo Giornale » Osservazioni meteo Stati Uniti (USA) » Willimantic Windham

ore: 17:52 - Osservazioni Meteo Willimantic Windham
Lat. 41° 44' N Lon. 72° 11' W Alt. 75 metri s.l.m.

coperto_pioggia

16 °C

Pioggia Foschia

Temp. 24 Ore

16 °C

22 °C

Est/Nord-Est

9.3 Km/h

Dew point 15 °C

Umidità 93 %

Visibilità  5 Km

Il sole sorge alle ore 06:14

Il sole tramonta alle ore 19:22

Data e Ora Cielo e Fenomeni T °C DP °C Um. % Pres. hPa Vis. km Vento km/h
Oggi h: 17:52 coperto_pioggia Pioggia Foschia 16 15 93 1018 5 E/NE 9.3
Oggi h: 17:43 coperto_pioggia Pioggia Foschia 16 16 100 1018 5 E/NE 7.4
Oggi h: 17:19 coperto_pioggia Pioggia Foschia 16 15 93 1018 5 E/NE 13
Oggi h: 16:59 coperto_pioggia Pioggia Foschia 17 16 93 1017 5 E/NE 7.4
Oggi h: 16:52 coperto_pioggia Pioggia Foschia 17 16 93 1017 10 E/NE 11.1
Oggi h: 16:40 coperto Coperto 17 16 93 1017 10 E/NE 14.8
Oggi h: 15:52 coperto Coperto 17 16 93 1017 10 E/NE 13
Oggi h: 15:33 coperto_pioggia Pioggia 17 16 93 1017 10 E 7.4
Oggi h: 14:52 coperto Coperto 17 16 93 1017 11 N 5.5
Oggi h: 13:59 coperto_pioggia Pioggia 17 16 93 1017 13 N 0
Oggi h: 13:52 coperto_pioggia Pioggia Foschia 17 16 93 1017 10 N 5.5
Oggi h: 13:47 coperto_pioggia Pioggia Foschia 17 16 93 1017 10 N 0
Oggi h: 13:35 coperto_pioggia Pioggia Foschia 17 16 93 1016 5 S/SE 11.1
Oggi h: 13:32 nuvoloso_temporali Temporale Foschia 17 16 93 1016 3 S 13
Oggi h: 13:24 nuvoloso_temporali Temporale Foschia 18 17 93 1016 2 N 9.3
Oggi h: 13:06 coperto_pioggia Pioggia Foschia 19 18 93 1016 2 N 7.4
Oggi h: 12:52 foschia Foschia 19 19 100 1016 2 S/SE 9.3
Oggi h: 12:00 coperto_pioggia Pioggia 19 19 100 1016 10 N 0
Oggi h: 11:52 coperto_pioggia Pioggia 19 19 100 1017 13 N 0
Oggi h: 11:48 coperto_pioggia Pioggia 19 18 93 1016 14 N 0
Oggi h: 10:52 coperto_pioggia Pioggia 19 18 93 1017 10 E 7.4
Oggi h: 09:52 coperto_pioggia Pioggia Foschia 19 18 93 1017 6 N 0
Oggi h: 09:44 coperto_pioggia Pioggia Foschia 19 18 93 1017 10 SE 7.4
Oggi h: 09:34 coperto_pioggia Pioggia Foschia 19 19 100 1017 8 S/SE 7.4
Oggi h: 09:00 coperto_pioggia Pioggia Foschia 19 19 100 1017 3 S/SO 9.3
Oggi h: 08:52 coperto_pioggia Pioggia Foschia 19 18 93 1017 2 N 5.5
Oggi h: 08:50 coperto_pioggia Pioggia Foschia 19 18 93 1017 5 S 7.4
Oggi h: 08:44 coperto_pioggia Pioggia Nebbia 19 19 100 1017 2 S 7.4
Oggi h: 08:33 coperto_pioggia Pioggia Foschia 19 19 100 1017 2 N 0
Oggi h: 08:12 coperto_pioggia Pioggia Foschia 19 18 93 1017 5 N 0
Oggi h: 07:58 coperto_pioggia Pioggia Foschia 19 18 93 1017 5 N 0
Oggi h: 07:52 coperto_pioggia Pioggia Foschia 19 18 93 1017 3 N 0
Oggi h: 07:45 coperto_pioggia Pioggia Foschia 19 18 93 1017 3 N 0
Oggi h: 07:38 coperto_pioggia Pioggia Foschia 19 18 93 1017 5 N 0
Oggi h: 07:16 coperto_pioggia Pioggia Foschia 19 18 93 1017 2 N 5.5
Oggi h: 06:52 coperto_pioggia Pioggia Foschia 19 18 93 1017 5 N 0
Oggi h: 06:47 coperto_pioggia Pioggia Foschia 19 18 93 1017 2 N 0
Oggi h: 06:33 coperto Coperto 19 18 93 1017 10 N 0
Oggi h: 05:52 coperto Coperto 19 17 88 1016 10 N 0
Oggi h: 05:21 coperto Coperto 19 17 88 1017 10 N 0
Oggi h: 05:07 coperto Coperto 19 17 88 1017 10 N 0
Oggi h: 04:52 coperto Coperto 19 17 88 1017 10 N 0
Oggi h: 04:34 coperto Coperto 19 17 88 1017 10 N 0
Oggi h: 03:52 coperto Coperto 19 17 88 1017 10 N 0
Oggi h: 02:52 coperto Coperto 19 17 88 1017 10 N 0
Oggi h: 02:25 coperto Coperto 19 17 88 1018 10 N 0
Oggi h: 02:14 coperto Coperto 19 17 88 1018 10 N 5.5
Oggi h: 01:52 coperto Coperto 19 17 88 1018 10 N 0
Oggi h: 00:52 coperto Coperto 19 17 88 1018 10 N 0
Ieri h: 23:52 coperto Coperto 19 17 88 1019 10 N 5.5
Ieri h: 22:52 coperto Coperto 19 17 88 1019 10 N 0
Ieri h: 21:52 coperto Coperto 20 16 77 1019 10 N 0
Ieri h: 20:52 coperto Coperto 21 16 73 1019 10 N 5.5
Ieri h: 19:52 coperto Coperto 21 16 73 1018 10 S 9.3
Ieri h: 18:52 coperto Coperto 22 16 68 1019 10 S 11.1